TimeCDT,TemperatureF,Dew PointF,Humidity,Sea Level PressureIn,VisibilityMPH,Wind Direction,Wind SpeedMPH,Gust SpeedMPH,PrecipitationIn,Events,Conditions,WindDirDegrees,DateUTC
12:53 AM,75.9,72.0,87,29.99,8.0,Calm,Calm,-,N/A,,Mostly Cloudy,0,2013-06-17 05:53:00
1:53 AM,75.9,73.0,91,29.98,9.0,Calm,Calm,-,N/A,,Scattered Clouds,0,2013-06-17 06:53:00
2:53 AM,77.0,73.0,88,29.99,10.0,WSW,4.6,-,N/A,,Mostly Cloudy,250,2013-06-17 07:53:00
3:53 AM,75.9,73.0,91,29.99,10.0,Calm,Calm,-,N/A,,Clear,0,2013-06-17 08:53:00
4:53 AM,75.0,73.0,94,29.97,10.0,Calm,Calm,-,N/A,,Clear,0,2013-06-17 09:53:00
5:53 AM,73.0,72.0,96,29.99,9.0,Calm,Calm,-,N/A,,Clear,0,2013-06-17 10:53:00
6:53 AM,75.0,73.0,94,29.98,8.0,Calm,Calm,-,N/A,,Clear,0,2013-06-17 11:53:00
7:53 AM,79.0,73.9,84,29.99,10.0,Variable,3.5,-,N/A,,Clear,0,2013-06-17 12:53:00
8:53 AM,82.0,73.0,74,30.00,10.0,West,6.9,-,N/A,,Clear,270,2013-06-17 13:53:00
9:53 AM,84.0,71.1,65,30.00,10.0,WSW,6.9,-,N/A,,Partly Cloudy,240,2013-06-17 14:53:00
10:53 AM,84.0,72.0,67,30.02,10.0,WSW,8.1,-,N/A,,Mostly Cloudy,250,2013-06-17 15:53:00
11:53 AM,88.0,71.1,57,30.02,10.0,West,11.5,16.1,N/A,,Partly Cloudy,260,2013-06-17 16:53:00
12:53 PM,88.0,69.1,53,30.00,10.0,WSW,9.2,-,N/A,,Mostly Cloudy,240,2013-06-17 17:53:00
1:53 PM,90.0,69.1,50,29.96,10.0,WSW,12.7,18.4,N/A,,Partly Cloudy,250,2013-06-17 18:53:00
2:53 PM,91.0,68.0,47,29.93,10.0,SSW,9.2,-,N/A,,Clear,210,2013-06-17 19:53:00
3:53 PM,91.0,66.9,45,29.94,10.0,West,10.4,16.1,N/A,,Partly Cloudy,270,2013-06-17 20:53:00
4:53 PM,89.1,66.9,48,29.93,10.0,West,5.8,-,N/A,,Clear,270,2013-06-17 21:53:00
5:53 PM,90.0,69.1,50,29.91,10.0,SSW,8.1,-,N/A,,Mostly Cloudy,210,2013-06-17 22:53:00
6:53 PM,87.1,70.0,57,29.91,10.0,SW,4.6,-,N/A,,Clear,230,2013-06-17 23:53:00
7:53 PM,84.0,71.1,65,29.92,10.0,WSW,4.6,-,N/A,,Clear,240,2013-06-18 00:53:00
8:53 PM,80.1,72.0,76,29.92,10.0,South,3.5,-,N/A,,Clear,190,2013-06-18 01:53:00
9:53 PM,79.0,72.0,79,29.94,10.0,SSW,3.5,-,N/A,,Clear,200,2013-06-18 02:53:00
10:53 PM,78.1,72.0,81,29.94,10.0,SSW,3.5,-,N/A,,Clear,210,2013-06-18 03:53:00
11:53 PM,77.0,72.0,84,29.94,10.0,South,4.6,-,N/A,,Clear,190,2013-06-18 04:53:00